Regional Weather Roundup
Issued by NWS

Home | Current Version | Previous Version | Graphics & Text | Print | Product List | Glossary On
Versions: 1 2 3 4 5 6 7 8 9 10 11 12 13 14 15 16 17 18 19 20 21 22 23 24 25 26 27 28 29 30 31 32 33 34 35 36 37 38 39 40 41 42 43 44 45 46 47 48 49 50
000
ASUS43 KFSD 261010
RWRSD

WEATHER ROUNDUP FOR SOUTH DAKOTA
NATIONAL WEATHER SERVICE SIOUX FALLS SD
500 AM CDT SAT JUL 26 2014

NOTE: "FAIR" INDICATES FEW OR NO CLOUDS BELOW 12,000 FEET WITH NO
SIGNIFICANT WEATHER AND/OR OBSTRUCTIONS TO VISIBILITY.


SDZ001>005-009-010-012>017-261100-
NORTHWEST AND NORTH CENTRAL SOUTH DAKOTA

CITY           SKY/WX    TMP DP  RH WIND       PRES   REMARKS
BUFFALO          N/A     59  43  55 N22       29.88R
FAITH            N/A     60  51  72 W6        29.89R
MOBRIDGE       PTCLDY    67  66  97 S3        29.80R
$$

SDZ012>016-024>037-041>051-057-063-072>074-261100-
SOUTHWEST AND SOUTH CENTRAL SOUTH DAKOTA

CITY           SKY/WX    TMP DP  RH WIND       PRES   REMARKS
RAPID CTY ARPT CLEAR     61  50  67 N12       29.91R
PIERRE         MOCLDY    69  67  93 E7        29.82R
CUSTER         CLEAR     64  41  42 VRB5      30.05R
ELLSWORTH AFB  CLEAR     67  50  54 N14       29.92R
PHILIP         CLEAR     66  63  90 NE7       29.84R
PINE RIDGE     CLEAR     60  56  86 W3        29.88R
WINNER         FAIR      69  66  90 E6        29.83R
$$

SDZ004>011-016>023-039-040-261100-
NORTHEAST SOUTH DAKOTA

CITY           SKY/WX    TMP DP  RH WIND       PRES   REMARKS
ABERDEEN       MOCLDY    61  61 100 CALM      29.80F
WATERTOWN      CLOUDY    65  64  97 VRB3      29.85S
SISSETON         N/A     57  56  96 CALM      29.79F
$$

SDZ017-020-022-023-036>040-048>070-261100-
SOUTHEAST SOUTH DAKOTA

CITY           SKY/WX    TMP DP  RH WIND       PRES   REMARKS
SIOUX FALLS    CLOUDY    71  69  93 E7        29.83R
HURON          CLOUDY    68  66  93 N10       29.82S THUNDER
CHAMBERLAIN    PTCLDY    69  65  87 SE10      29.83R
MITCHELL       MOCLDY    69  67  93 NE3       29.83R
YANKTON        MOCLDY    70  68  94 NE6       29.81R
$$

ABBREVIATIONS USED IN REMARKS
   TC - TEMPERATURE IN CELSIUS
  WCI - WIND CHILL INDEX
   HX - HEAT INDEX
  VSB - VISIBILITY



USA.gov is the U.S. government's official web portal to all federal, state and local government web resources and services.